Regional Weather Roundup
Issued by NWS

Home | Current Version | Previous Version | Text Only | Print | Product List | Glossary Off
Versions: 1 2 3 4 5 6 7 8 9 10 11 12 13 14 15 16 17 18 19 20 21 22 23 24 25 26 27 28 29 30 31 32 33 34 35 36 37 38 39 40 41 42 43 44 45 46 47 48 49 50

854
ASUS44 KLIX 020410
RWRLA
LOUISIANA WEATHER ROUNDUP
NATIONAL WEATHER SERVICE NEW ORLEANS LA
1000 PM CST SUN MAR 01 2015

NOTE: "FAIR" INDICATES FEW OR NO CLOUDS BELOW 12,000 FEET WITH NO
      SIGNIFICANT WEATHER AND/OR OBSTRUCTIONS TO VISIBILITY.
      SKY/WX - SKY CONDITION AND SIGNIFICANT WEATHER.
      TMP - AIR TEMPERATURE.    DP   - DEWPOINT TEMPERATURE.
      RH  - RELATIVE HUMIDITY.  PRES - PRESSURE.
      HX  - HEAT INDEX.         WCI  - WIND CHILL INDEX.

*  THESE STATIONS ARE NOT NWS OR FAA STATIONS AND ARE NOT UNDER
   NWS QUALITY CONTROL.

LAZ040-048-061>063-065-066-069-020500-
SOUTHEAST LOUISIANA

CITY           SKY/WX    TMP DP  RH WIND       PRES   REMARKS
N.O. AUDUBON     N/A     58  58 100 MISG        N/A
N.O. INTL ARPT LGT RAIN  58  56  93 E13       30.29S FOG
N.O. LAKEFRONT FOG       58  56  93 E10       30.31S VSB 3/4
SLIDELL        LGT RAIN  61  61 100 N7        30.32R FOG
BATON ROUGE    LGT RAIN  63  61  93 NE12      30.28F
BOOTHVILLE     FOG       60  60 100 E5        30.30R VSB 1/4
BELLE CHASSE   FOG       59  56  89 NE6       30.30R VSB 1/2
BOGALUSA*      RAIN      61  58  89 E10       30.35R
GALLIANO*      FOG       59  58  97 CALM      30.28F VSB 1/4
NEW ROADS*     DRIZZLE   63  62  96 E7        30.28R
GONZALES*      CLOUDY    59  59 100 E12       30.29S
HAMMOND*       HVY RAIN  63  59  88 CALM      30.34S
HOUMA*         CLOUDY    64  63  96 E7        30.28R FOG
PORT FOURCHON* CLOUDY    68  66  94 SE7       30.30S FOG

$$

LAZ041-044-053-054-020500-
SOUTHWEST LOUISIANA

CITY           SKY/WX    TMP DP  RH WIND       PRES   REMARKS
LAKE CHARLES   LGT RAIN  64  63  96 E12       30.24S
LAFAYETTE      LGT RAIN  64  63  96 E6        30.27R
PATTERSON      CLOUDY    68  66  94 S6        30.26S
SALT POINT       N/A     65  65 100 SE7       30.24R
NEW IBERIA     CLOUDY    65  63  93 NE13      30.27R FOG
CHENAULT AIRPK LGT RAIN  63  63  98 NE7       30.25S

$$

LAZ027-028-020500-
CENTRAL LOUISIANA

CITY           SKY/WX    TMP DP  RH WIND       PRES   REMARKS
FORT POLK      CLOUDY    54  52  94 N6        30.28R FOG
ALEXANDRIA INT CLOUDY    52  52 100 N6        30.29R
ALEXANDRIA     CLOUDY    53  51  93 N5        30.30R

$$

LAZ001-002-020500-
NORTHWEST LOUISIANA

CITY           SKY/WX    TMP DP  RH WIND       PRES   REMARKS
SHREVEPORT     LGT RAIN  44  43  96 N6        30.33S FOG
BARKSDALE AFB  LGT RAIN  43  43 100 N2        30.33S FOG
DTN SHREVEPORT LGT RAIN  43  41  93 CALM      30.34R FOG

$$

LAZ014-016-020500-
NORTHEAST LOUISIANA

CITY           SKY/WX    TMP DP  RH WIND       PRES   REMARKS
MONROE         CLOUDY    44  43  96 N3        30.35R
TALLULAH       CLOUDY    48  47  96 N7        30.32R FOG

$$




USA.gov is the U.S. government's official web portal to all federal, state and local government web resources and services.